{"data":{"norad_id":52458,"intl_designator":"2022-049H","name":"STARLINK-3898","alt_names":[],"object_type":"PAYLOAD","status":"ACTIVE","operator":null,"country":"US","launch_date":"2022-05-06","launch_site_code":"AFETR","launch_vehicle":null,"mission":null,"orbit_class":"UNKNOWN","rcs_meters":null,"size_class":null,"mass_kg":null,"dimensions":null,"purposes":["comms"],"wikipedia_slug":null,"has_3d_model":false,"image_url":null,"decayed_at":null,"tle_current":{"epoch":"2026-05-25T03:09:51.333696Z","epoch_age_seconds":57034,"freshness":"FRESH","line1":"1 52458U 22049H   26145.13184414 -.00000537  00000+0 -15640-4 0  9991","line2":"2 52458  53.2135  85.9576 0001362  62.1889 297.9241 15.08841760223653","mean_motion":15.0884176,"eccentricity":0.0001362,"inclination_deg":53.2135,"raan_deg":85.9576,"arg_perigee_deg":62.1889,"mean_anomaly_deg":297.9241,"bstar":-1.564e-5,"rev_number":22365,"period_min":95.437443353901,"perigee_km":538.79579477716,"apogee_km":540.68022392971,"semimajor_km":6917.8750093534,"source":"CELESTRAK","updated_at":"2026-05-25T13:38:17.125458Z"}}}